Radiation Dose at Monitoring Post of Fukushima Daini Nuclear Power Station
Date,Time,MP-1(microSv/h),MP-2(microSv/h),MP-3(microSv/h),MP-4(microSv/h),MP-5(microSv/h),MP-6(microSv/h),MP-7(microSv/h),Wind Direction,Wind Velocity(m/s),Rain
2020/02/24,00:00,0.181,0.167,0.272,0.254,0.253,0.140,0.086,west,5.3,No
2020/02/24,00:10,0.181,0.168,0.274,0.254,0.253,0.140,0.087,west,6.5,No
2020/02/24,00:20,0.181,0.167,0.275,0.254,0.252,0.140,0.086,west-northwest,7.9,No
2020/02/24,00:30,0.181,0.166,0.275,0.254,0.252,0.140,0.086,west-northwest,7.0,No
2020/02/24,00:40,0.181,0.167,0.273,0.253,0.253,0.139,0.086,west,5.6,No
2020/02/24,00:50,0.182,0.166,0.275,0.254,0.253,0.139,0.086,west,4.9,No
2020/02/24,01:00,0.182,0.166,0.273,0.253,0.253,0.140,0.086,west-southwest,3.0,No
2020/02/24,01:10,0.181,0.167,0.273,0.253,0.251,0.140,0.086,northwest,0.7,No
2020/02/24,01:20,0.180,0.167,0.274,0.252,0.252,0.140,0.085,north-northeast,0.7,No
2020/02/24,01:30,0.179,0.167,0.273,0.253,0.253,0.139,0.086,northwest,0.8,No
2020/02/24,01:40,0.180,0.167,0.273,0.253,0.253,0.140,0.086,west-northwest,2.0,No
2020/02/24,01:50,0.182,0.166,0.273,0.252,0.252,0.140,0.086,west-northwest,1.3,No
2020/02/24,02:00,0.181,0.166,0.272,0.252,0.252,0.140,0.085,west-northwest,2.0,No
2020/02/24,02:10,0.181,0.167,0.273,0.253,0.251,0.139,0.086,west-northwest,3.5,No
2020/02/24,02:20,0.180,0.167,0.272,0.254,0.251,0.139,0.085,west-northwest,4.0,No
2020/02/24,02:30,0.181,0.166,0.273,0.253,0.251,0.139,0.086,west,3.5,No
2020/02/24,02:40,0.181,0.167,0.272,0.253,0.253,0.140,0.085,west-northwest,3.6,No
2020/02/24,02:50,0.181,0.166,0.273,0.253,0.253,0.139,0.086,northwest,4.3,No
2020/02/24,03:00,0.181,0.167,0.273,0.254,0.252,0.140,0.087,northwest,4.1,No
2020/02/24,03:10,0.181,0.167,0.273,0.253,0.252,0.140,0.085,west-northwest,4.6,No
2020/02/24,03:20,0.180,0.167,0.273,0.253,0.252,0.140,0.086,west-northwest,4.4,No
2020/02/24,03:30,0.181,0.167,0.273,0.254,0.252,0.140,0.085,west-northwest,3.8,No
2020/02/24,03:40,0.181,0.166,0.273,0.254,0.253,0.141,0.086,northwest,3.4,No
2020/02/24,03:50,0.181,0.168,0.273,0.253,0.252,0.140,0.086,northwest,2.9,No
2020/02/24,04:00,0.181,0.166,0.273,0.252,0.252,0.140,0.086,northwest,3.6,No
2020/02/24,04:10,0.181,0.166,0.272,0.253,0.252,0.139,0.086,northwest,2.5,No
2020/02/24,04:20,0.181,0.167,0.274,0.253,0.251,0.140,0.086,northwest,2.2,No
2020/02/24,04:30,0.180,0.166,0.274,0.254,0.251,0.139,0.086,northwest,1.8,No
2020/02/24,04:40,0.181,0.166,0.273,0.254,0.251,0.140,0.085,west,1.7,No
2020/02/24,04:50,0.181,0.167,0.273,0.253,0.251,0.140,0.086,west,1.9,No
2020/02/24,05:00,0.181,0.166,0.273,0.253,0.251,0.140,0.086,west-northwest,2.4,No
2020/02/24,05:10,0.182,0.166,0.273,0.253,0.251,0.140,0.085,northwest,3.4,No
2020/02/24,05:20,0.181,0.167,0.274,0.254,0.252,0.139,0.086,north-northwest,2.6,No
2020/02/24,05:30,0.181,0.167,0.273,0.253,0.252,0.140,0.086,north-northeast,2.1,No
2020/02/24,05:40,0.180,0.166,0.274,0.253,0.252,0.140,0.086,north,2.4,No
2020/02/24,05:50,0.181,0.167,0.273,0.253,0.252,0.140,0.085,north,1.9,No
2020/02/24,06:00,0.181,0.166,0.273,0.254,0.252,0.140,0.086,north-northwest,1.5,No
2020/02/24,06:10,0.180,0.167,0.274,0.253,0.251,0.140,0.085,-,CALM,No
2020/02/24,06:20,0.181,0.166,0.275,0.252,0.251,0.140,0.086,-,CALM,No
2020/02/24,06:30,0.181,0.167,0.273,0.254,0.252,0.140,0.085,northeast,1.1,No
2020/02/24,06:40,0.181,0.168,0.273,0.253,0.251,0.140,0.086,northeast,0.8,No
2020/02/24,06:50,0.180,0.167,0.273,0.253,0.251,0.140,0.086,east-northeast,1.1,No
2020/02/24,07:00,0.181,0.168,0.273,0.253,0.254,0.140,0.086,east,1.8,No
2020/02/24,07:10,0.181,0.166,0.274,0.253,0.252,0.140,0.085,east-northeast,2.1,No
2020/02/24,07:20,0.179,0.168,0.273,0.253,0.251,0.139,0.086,east-northeast,2.5,No
2020/02/24,07:30,0.180,0.167,0.272,0.253,0.252,0.140,0.085,northeast,2.2,No
2020/02/24,07:40,0.182,0.166,0.272,0.253,0.252,0.139,0.085,northeast,1.8,No
2020/02/24,07:50,0.181,0.166,0.275,0.251,0.252,0.140,0.086,northeast,0.9,No
2020/02/24,08:00,0.180,0.167,0.273,0.253,0.252,0.139,0.085,east-northeast,0.7,No
2020/02/24,08:10,0.180,0.167,0.273,0.252,0.253,0.140,0.085,northeast,1.4,No
2020/02/24,08:20,0.181,0.166,0.272,0.253,0.251,0.140,0.085,northeast,0.8,No
2020/02/24,08:30,0.181,0.166,0.273,0.253,0.251,0.140,0.085,northeast,1.2,No
2020/02/24,08:40,0.181,0.166,0.273,0.254,0.251,0.140,0.085,north,1.2,No
2020/02/24,08:50,0.180,0.166,0.272,0.253,0.252,0.139,0.085,north,0.9,No
2020/02/24,09:00,0.181,0.166,0.272,0.253,0.253,0.139,0.085,east-northeast,1.2,No
2020/02/24,09:10,0.181,0.167,0.273,0.254,0.254,0.139,0.086,east,1.5,No
2020/02/24,09:20,0.180,0.166,0.274,0.252,0.252,0.139,0.086,east,0.9,No
2020/02/24,09:30,0.180,0.165,0.272,0.252,0.253,0.139,0.085,east-northeast,1.3,No
2020/02/24,09:40,0.179,0.166,0.272,0.251,0.253,0.140,0.085,east-northeast,1.7,No
2020/02/24,09:50,0.180,0.166,0.274,0.251,0.251,0.138,0.085,east-northeast,2.0,No
2020/02/24,10:00,0.179,0.167,0.273,0.252,0.252,0.139,0.085,east,1.3,No
2020/02/24,10:10,0.181,0.166,0.272,0.251,0.252,0.139,0.086,-,CALM,No
2020/02/24,10:20,0.180,0.166,0.274,0.253,0.251,0.139,0.086,-,CALM,No
2020/02/24,10:30,0.181,0.166,0.272,0.253,0.253,0.140,0.085,northwest,1.9,No
2020/02/24,10:40,0.181,0.165,0.272,0.254,0.252,0.140,0.086,west-northwest,6.8,No
2020/02/24,10:50,0.180,0.167,0.273,0.253,0.251,0.139,0.086,west,6.0,No
2020/02/24,11:00,0.181,0.167,0.273,0.253,0.255,0.140,0.085,west-northwest,5.0,No
2020/02/24,11:10,0.181,0.166,0.271,0.252,0.251,0.139,0.086,west-northwest,2.9,No
2020/02/24,11:20,0.181,0.166,0.274,0.254,0.254,0.140,0.085,west,3.0,No
2020/02/24,11:30,0.181,0.167,0.273,0.253,0.252,0.140,0.086,west,5.3,No
2020/02/24,11:40,0.181,0.165,0.272,0.254,0.252,0.139,0.085,west-southwest,3.6,No
2020/02/24,11:50,0.181,0.167,0.273,0.252,0.252,0.139,0.086,west,3.1,No
2020/02/24,12:00,0.180,0.167,0.271,0.252,0.252,0.139,0.086,west,2.9,No
2020/02/24,12:10,0.180,0.167,0.272,0.253,0.254,0.139,0.085,west-southwest,2.3,No
2020/02/24,12:20,0.181,0.167,0.273,0.253,0.252,0.138,0.085,west,2.9,No
2020/02/24,12:30,0.180,0.166,0.272,0.254,0.253,0.140,0.086,west,6.4,No
2020/02/24,12:40,0.181,0.166,0.273,0.252,0.251,0.139,0.085,west-southwest,7.0,No
2020/02/24,12:50,0.180,0.166,0.272,0.254,0.254,0.140,0.085,west-southwest,5.4,No
2020/02/24,13:00,0.180,0.167,0.272,0.252,0.251,0.139,0.085,south,5.4,No
2020/02/24,13:10,0.181,0.167,0.272,0.254,0.252,0.140,0.086,south,5.1,No
2020/02/24,13:20,0.180,0.166,0.273,0.253,0.251,0.139,0.085,south-southeast,4.6,No
2020/02/24,13:30,0.182,0.167,0.273,0.254,0.253,0.141,0.085,south-southeast,3.9,No
2020/02/24,13:40,0.181,0.166,0.273,0.253,0.252,0.139,0.086,south-southeast,5.2,No
2020/02/24,13:50,0.182,0.166,0.274,0.254,0.255,0.139,0.086,south-southeast,5.3,No
2020/02/24,14:00,0.180,0.166,0.273,0.254,0.251,0.140,0.086,south-southeast,5.2,No
2020/02/24,14:10,0.181,0.167,0.274,0.253,0.252,0.140,0.085,south-southeast,6.8,No
2020/02/24,14:20,0.179,0.167,0.272,0.252,0.250,0.139,0.085,south-southeast,6.1,No
2020/02/24,14:30,0.180,0.166,0.273,0.253,0.253,0.140,0.085,south-southeast,7.0,No
2020/02/24,14:40,0.180,0.168,0.273,0.254,0.252,0.139,0.086,south-southeast,6.4,No
2020/02/24,14:50,0.181,0.166,0.275,0.253,0.253,0.140,0.086,south-southeast,5.5,No
2020/02/24,15:00,0.181,0.166,0.274,0.256,0.253,0.140,0.086,south-southeast,5.5,No
2020/02/24,15:10,0.181,0.167,0.273,0.254,0.253,0.140,0.086,south-southeast,4.7,No
2020/02/24,15:20,0.181,0.167,0.274,0.254,0.252,0.140,0.086,south-southeast,4.4,No
2020/02/24,15:30,0.181,0.167,0.272,0.255,0.254,0.140,0.086,south-southeast,4.6,No
2020/02/24,15:40,0.181,0.167,0.274,0.254,0.252,0.139,0.085,south-southeast,4.5,No
2020/02/24,15:50,0.180,0.167,0.274,0.255,0.254,0.139,0.086,south-southeast,4.8,No
2020/02/24,16:00,0.181,0.167,0.273,0.254,0.251,0.140,0.086,south,5.2,No
2020/02/24,16:10,0.179,0.167,0.273,0.254,0.252,0.139,0.086,south-southeast,5.7,No
2020/02/24,16:20,0.181,0.167,0.274,0.256,0.253,0.139,0.085,south-southeast,5.1,No
2020/02/24,16:30,0.181,0.168,0.274,0.254,0.252,0.140,0.086,south,5.7,No
2020/02/24,16:40,0.180,0.168,0.275,0.254,0.254,0.140,0.085,south,5.7,No
2020/02/24,16:50,0.183,0.167,0.273,0.254,0.253,0.140,0.086,south-southeast,6.8,No
2020/02/24,17:00,0.180,0.168,0.275,0.254,0.252,0.141,0.086,south-southeast,8.1,No
2020/02/24,17:10,0.183,0.167,0.274,0.253,0.255,0.140,0.085,south-southeast,5.8,No
2020/02/24,17:20,0.181,0.167,0.272,0.255,0.252,0.141,0.086,south-southeast,6.1,No
2020/02/24,17:30,0.180,0.166,0.274,0.256,0.253,0.140,0.085,south-southeast,6.5,No
2020/02/24,17:40,0.181,0.167,0.274,0.254,0.253,0.141,0.085,south-southeast,6.3,No
2020/02/24,17:50,0.180,0.167,0.273,0.255,0.253,0.141,0.086,south-southeast,5.8,No
2020/02/24,18:00,0.181,0.167,0.274,0.255,0.253,0.142,0.086,south-southeast,5.6,No
2020/02/24,18:10,0.181,0.167,0.272,0.254,0.254,0.140,0.086,south,6.3,No
2020/02/24,18:20,0.181,0.166,0.273,0.255,0.252,0.140,0.085,south-southeast,5.5,No
2020/02/24,18:30,0.182,0.167,0.273,0.256,0.253,0.141,0.086,south-southeast,5.4,No
2020/02/24,18:40,0.182,0.167,0.273,0.253,0.253,0.141,0.085,south-southeast,5.4,No
2020/02/24,18:50,0.180,0.167,0.272,0.255,0.252,0.140,0.086,south-southeast,5.8,No
2020/02/24,19:00,0.181,0.167,0.273,0.254,0.254,0.141,0.086,south-southeast,6.0,No
2020/02/24,19:10,0.180,0.166,0.273,0.255,0.254,0.141,0.085,south-southeast,5.9,No
2020/02/24,19:20,0.181,0.167,0.274,0.254,0.253,0.140,0.085,southeast,6.9,No
2020/02/24,19:30,0.180,0.168,0.273,0.254,0.253,0.140,0.086,southeast,7.5,No
2020/02/24,19:40,0.180,0.166,0.272,0.254,0.253,0.139,0.085,southeast,6.5,No
2020/02/24,19:50,0.180,0.166,0.272,0.254,0.253,0.140,0.086,southeast,5.9,No
2020/02/24,20:00,0.182,0.166,0.275,0.255,0.253,0.140,0.086,south-southeast,4.6,No
2020/02/24,20:10,0.179,0.166,0.272,0.254,0.252,0.139,0.085,south-southeast,3.7,No
2020/02/24,20:20,0.179,0.166,0.273,0.254,0.253,0.140,0.085,south,2.4,No
2020/02/24,20:30,0.181,0.166,0.274,0.255,0.254,0.139,0.086,south-southeast,4.0,No
2020/02/24,20:40,0.180,0.166,0.272,0.253,0.252,0.139,0.086,south,3.2,No
2020/02/24,20:50,0.180,0.167,0.272,0.254,0.253,0.140,0.085,south,3.1,No
2020/02/24,21:00,0.181,0.167,0.274,0.256,0.254,0.139,0.085,south-southwest,4.1,No
2020/02/24,21:10,0.181,0.166,0.272,0.255,0.252,0.140,0.085,south-southeast,4.1,No
2020/02/24,21:20,0.181,0.167,0.273,0.255,0.253,0.140,0.085,south,4.3,No
2020/02/24,21:30,0.181,0.166,0.274,0.254,0.252,0.140,0.086,south-southeast,4.7,No
2020/02/24,21:40,0.180,0.167,0.273,0.253,0.252,0.140,0.086,south-southeast,4.8,No
2020/02/24,21:50,0.181,0.167,0.273,0.254,0.253,0.140,0.085,south-southeast,3.2,No
2020/02/24,22:00,0.180,0.167,0.274,0.255,0.252,0.140,0.086,south-southwest,4.0,No
2020/02/24,22:10,0.181,0.166,0.272,0.254,0.252,0.140,0.085,southwest,3.6,No
2020/02/24,22:20,0.181,0.167,0.273,0.254,0.253,0.140,0.085,south-southwest,1.9,No
2020/02/24,22:30,0.181,0.167,0.273,0.254,0.252,0.140,0.084,south,3.3,No
2020/02/24,22:40,0.180,0.167,0.271,0.254,0.253,0.140,0.085,south-southeast,3.9,No
2020/02/24,22:50,0.181,0.168,0.273,0.254,0.253,0.139,0.085,south-southwest,2.9,No
2020/02/24,23:00,0.181,0.166,0.274,0.254,0.253,0.140,0.085,southwest,1.3,No
2020/02/24,23:10,0.181,0.167,0.271,0.253,0.252,0.140,0.086,east-southeast,1.3,No
2020/02/24,23:20,0.181,0.168,0.273,0.254,0.253,0.139,0.085,south-southeast,2.5,No
2020/02/24,23:30,0.180,0.166,0.273,0.255,0.251,0.139,0.086,south-southeast,3.2,No
2020/02/24,23:40,0.181,0.167,0.273,0.253,0.253,0.139,0.086,south,2.8,No
2020/02/24,23:50,0.181,0.167,0.273,0.253,0.253,0.140,0.085,southwest,2.0,No
